Skip Navigation Linkswww.weather.gov 
NOAA logo - Click to go to the NOAA homepage National Weather Service   NWS logo - Click to go to the NWS homepage    
Western Region Headquarters
navigation bar decoration      
Regional Divisions
 
 
 
 
 
USA.gov is the U.S. government's official web portal to all federal, state and local government web resources and services.
spacer
Printer Friendly  |   Go Back  |  Version: Current   1   2   3   4   5   6   7   8   9   10   |  Font:  A A A  |  
This version is NOT current and may no longer be valid!

HOURLY WEATHER ROUNDUP
 
 ASUS45 KREV 050910
RWRNV
NEVADA REGIONAL WEATHER ROUNDUP
NATIONAL WEATHER SERVICE RENO NV
100 AM PST THU MAR 05 2015

NOTE: "FAIR" INDICATES FEW OR NO CLOUDS BELOW 12,000 FEET WITH NO
SIGNIFICANT WEATHER AND/OR OBSTRUCTIONS TO VISIBILITY.

NVZ001-003-004-051000-
WESTERN NEVADA

CITY SKY/WX TMP DP RH WIND PRES REMARKS
RENO CLEAR 33 19 56 CALM 30.34R
CARSON CITY FAIR 27 19 74 CALM 30.34R
MINDEN FAIR 18 12 79 E6 30.35
SLIDE MTN N/A 32 -4 21 E8 N/A
PYRAMID LAKE N/A 37 N/A N/A W3 N/A
FALLON CLEAR 27 16 63 S6 30.33R
LOVELOCK CLEAR 20 10 65 E3 30.33R
HAWTHORNE CLEAR 32 19 59 CALM 30.33R
$$

NVZ002-CAZ072-073-051000-
NORTHERN AND CENTRAL SIERRA

CITY SKY/WX TMP DP RH WIND PRES REMARKS
S. LAKE TAHOE CLEAR 23 15 71 CALM 30.30R
TRUCKEE CLEAR 21 18 86 CALM 30.33R
SQUAW VLY 8000 N/A 27 12 54 W1 N/A
SUSANVILLE CLEAR 28 19 69 W3 30.32
BLUE CANYON CLEAR 43 16 33 CALM 30.28R
MAMMOTH LAKES FAIR 19 7 58 N3 30.33R
BRIDGEPORT FAIR 19 11 70 CALM 30.30R
$$

NVZ030-031-036-051000-
NORTHERN NEVADA

CITY SKY/WX TMP DP RH WIND PRES REMARKS
ELKO CLEAR 22 13 68 NE3 30.33R
WINNEMUCCA CLEAR 20 13 74 E7 30.34R
WENDOVER CLEAR 25 14 63 CALM 30.35R
$$

NVZ035-037-051000-
CENTRAL NEVADA

CITY SKY/WX TMP DP RH WIND PRES REMARKS
ELY CLEAR 16 12 84 S13 30.33S
EUREKA N/A 18 12 77 S5 30.33R
$$

NVZ013-014-051000-
SOUTH CENTRAL NEVADA

CITY SKY/WX TMP DP RH WIND PRES REMARKS
TONOPAH CLEAR 27 17 66 N12 30.32R
$$

NVZ017-020-022-051000-
SOUTHERN NEVADA

CITY SKY/WX TMP DP RH WIND PRES REMARKS
LAS VEGAS CLEAR 46 28 49 SW9 30.27R
N. LAS VEGAS CLEAR 44 26 49 W6 30.30R
NELLIS AFB CLEAR 46 29 51 NE6 30.30R
HENDERSON CLEAR 38 28 67 S7 30.32R
MERCURY CLEAR 42 21 43 VRB5 30.28R
$$


Webmaster
US Dept of Commerce
National Oceanic and Atmospheric Administration
National Weather Service
Western Region Headquarters
125 South State Street
Salt Lake City, UT 84138-1102

Disclaimer
Information Quality
Credits
Glossary
Organization
Privacy Policy
Freedom of Information Act
About Us
Career Opportunities